This is the latest recevied weather packets stored in our database for station/object FW0727. If no packets are shown the sender has not sent any weather packets the latest 10 day(s).
| Time | Temp. | Humidity | Pressure | Rain* | Wind** | Luminosity | Snow |
|---|---|---|---|---|---|---|---|
| 1787761354 | 23.33° C | 40% | 1015.3 hPa | - | - | - | - |
| 1787760999 | 23.33° C | 41% | 1015.2 hPa | - | - | - | - |
| 1787760647 | 23.33° C | 41% | 1015.1 hPa | - | - | - | - |
| 1787758639 | 23.89° C | 38% | 1014.8 hPa | - | - | - | - |
| 1787757966 | 25° C | 37% | 1015 hPa | - | - | - | - |
| 1787757621 | 25° C | 37% | 1015 hPa | - | - | - | - |
| 1787756941 | 25.56° C | 35% | 1014.8 hPa | - | - | - | - |
| 1787756597 | 26.11° C | 34% | 1014.7 hPa | - | - | - | - |
| 1787756245 | 26.11° C | 34% | 1014.7 hPa | - | - | - | - |
| 1787755562 | 26.67° C | 33% | 1014.5 hPa | - | - | - | - |
| 1787754889 | 26.67° C | 34% | 1014.6 hPa | - | - | - | - |
| 1787754544 | 26.67° C | 34% | 1014.6 hPa | - | - | - | - |
| 1787754200 | 26.67° C | 33% | 1014.5 hPa | - | - | - | - |
| 1787753855 | 26.67° C | 33% | 1014.4 hPa | - | - | - | - |
| 1787753510 | 26.67° C | 34% | 1014.4 hPa | - | - | - | - |
| 1787751515 | 26.11° C | 35% | 1014.2 hPa | - | - | - | - |
| 1787750506 | 26.11° C | 35% | 1014.3 hPa | - | - | - | - |
| 1787750154 | 26.11° C | 35% | 1014.3 hPa | - | - | - | - |
| 1787749479 | 26.11° C | 36% | 1014.4 hPa | - | - | - | - |
| 1787749126 | 26.11° C | 36% | 1014.4 hPa | - | - | - | - |
| 1787747796 | 26.11° C | 36% | 1014.6 hPa | - | - | - | - |
| 1787747444 | 26.11° C | 37% | 1014.7 hPa | - | - | - | - |
| 1787747092 | 26.11° C | 37% | 1014.7 hPa | - | - | - | - |
| 1787746739 | 26.11° C | 37% | 1014.7 hPa | - | - | - | - |
| 1787746394 | 25.56° C | 37% | 1014.7 hPa | - | - | - | - |
* Rain since midnight (hover to see other rain measurements)
** Current wind speed in m/s (hover to see current wind gust speed)